This is the latest recevied weather packets stored in our database for station/object AF5AA. If no packets are shown the sender has not sent any weather packets the latest 10 day(s).
| Time | Temp. | Humidity | Pressure | Rain* | Wind** | Luminosity | Snow |
|---|---|---|---|---|---|---|---|
| 1777906455 | 20° C | 63% | 1014.7 hPa | 0 mm | - | 32 W/m² | - |
| 1777906152 | 20° C | 65% | 1015 hPa | 0 mm | - | 44 W/m² | - |
| 1777905848 | 20° C | 66% | 1015.1 hPa | 0 mm | - | 41 W/m² | - |
| 1777905545 | 19.44° C | 70% | 1015 hPa | 0 mm | - | 24 W/m² | - |
| 1777905242 | 18.89° C | 77% | 1015.1 hPa | 0 mm | - | 36 W/m² | - |
| 1777904939 | 18.33° C | 80% | 1015.1 hPa | 0 mm | - | 54 W/m² | - |
| 1777904636 | 18.33° C | 80% | 1014.9 hPa | 0 mm | - | 24 W/m² | - |
| 1777904333 | 17.78° C | 75% | 1015 hPa | 0 mm | - | 28 W/m² | - |
| 1777904030 | 17.22° C | 82% | 1015 hPa | 0 mm | - | 41 W/m² | - |
| 1777903727 | 16.67° C | 85% | 1015 hPa | 0 mm | - | 53 W/m² | - |
| 1777903423 | 16.67° C | 89% | 1015.2 hPa | 0 mm | - | 34 W/m² | - |
| 1777903120 | 16.11° C | 88% | 1015.3 hPa | 0 mm | - | 27 W/m² | - |
| 1777902816 | 15.56° C | 89% | 1015.1 hPa | 0 mm | - | 23 W/m² | - |
| 1777902514 | 15.56° C | 90% | 1015.2 hPa | 0 mm | - | 20 W/m² | - |
| 1777902210 | 15.56° C | 91% | 1015.1 hPa | 0 mm | - | 22 W/m² | - |
| 1777901908 | 15° C | 91% | 1015.2 hPa | 0 mm | - | 21 W/m² | - |
| 1777901606 | 15° C | 91% | 1015.3 hPa | 0 mm | - | 18 W/m² | - |
| 1777901303 | 14.44° C | 92% | 1015.2 hPa | 0 mm | - | 17 W/m² | - |
| 1777901000 | 14.44° C | 92% | 1015.1 hPa | 0 mm | - | 21 W/m² | - |
| 1777900699 | 14.44° C | 93% | 1015.3 hPa | 0 mm | - | 33 W/m² | - |
| 1777900395 | 13.89° C | 93% | 1015.2 hPa | 0 mm | - | 19 W/m² | - |
| 1777900092 | 13.89° C | 93% | 1015.2 hPa | 0 mm | - | 21 W/m² | - |
| 1777899788 | 13.89° C | 94% | 1015.2 hPa | 0 mm | - | 22 W/m² | - |
| 1777899485 | 13.33° C | 94% | 1015 hPa | 0 mm | - | 18 W/m² | - |
| 1777899183 | 13.33° C | 94% | 1015.1 hPa | 0 mm | - | 19 W/m² | - |
* Rain latest hour (hover to see other rain measurements)
** Current wind speed in m/s (hover to see current wind gust speed)